Location: Losili
(4.4086°N, 32.7049°E)
Time: 12:14:25
(UTC+00:00)

CZ-2D R/B - Pass Details

Date: 18 September 2019
Orbit: 523 x 538 km, 97.4° (Epoch: 17 October)

Event Time Altitude Azimuth Distance (km) Brightness Sun altitude
Exits shadow 17:05:46 26° 166° (SSE) 1,066 4.6 -20.4°
Maximum altitude 17:07:51 85° 79° (ENE) 530 3.0 -20.9°
Drops below altitude 10° 17:11:38 10° 350° (N) 1,754 6.0 -21.8°
Sets 17:13:44 0° 350° (N) 2,638 7.0 -22.4°
